[[{"header":{"parameterUnit":"m.s-1","parameterCategory":1,"la1":30.2991,"la2":30.254,"lo1":-89.0895,"lo2":-89.0444,"dy":0.0017,"dx":0.0017,"nx":28,"ny":28,"refTime":"2024-08-11T21:00:00:Z","depth":0,"parameterNumber":2,"parameterNumberName":"U-component_of_WINDS"},"data":[0,0,0,0,0,0,0,0,0,0,0,0,0,0,0,0,0,0,0,0,0,0,0,0,0,0,0,0,0,0,0,0,0,0,0,0,0,0,0,0,0,0,0,0,0,0,0,0,0,0,0,0,0,0,0,0,0,0,0.5902,0.5903,0,0.6052,0.6054,0.6055,0.6094,0.6093,0.6093,0.6092,0.6251,0.6256,0.6261,0,0,0,0,0,0,0,0,0,0,0,0,0,0.5652,0.5656,0.5901,0.5903,0.5905,0.6052,0.6054,0.6056,0.6095,0.6093,0.6092,0.6091,0.6249,0.6255,0.6262,0,0,0,0,0,0,0,0,0,0,0,0,0,0.5777,0.5658,0.5901,0.5942,0.5947,0.6051,0.6054,0.6056,0.6095,0.6093,0.6092,0.6091,0.6247,0.6255,0.6262,0.6338,0,0,0.6286,0.6289,0,0,0,0,0,0,0,0,0.577,0.5786,0.5934,0.5939,0.5945,0.6053,0.6024,0.6151,0.6095,0.6039,0.6092,0.609,0.6187,0.6199,0.6231,0.6346,0.6353,0.6287,0.6291,0.6295,0.6297,0,0,0,0,0,0,0,0.5761,0.578,0.5961,0.5936,0.5943,0.5954,0.5971,0.6049,0.6119,0.6044,0.6047,0.6064,0.619,0.6223,0.6235,0.6355,0.6286,0.6293,0.6298,0.6301,0.654,0.6542,0,0,0,0,0,0,0.5745,0.5773,0.5956,0.5966,0.5852,0.596,0.5978,0.602,0.6118,0.6132,0.6065,0.6065,0.6211,0.6226,0.6241,0.6336,0.6295,0.6302,0.6306,0.6538,0.654,0.6542,0,0,0,0,0,0,0.5739,0.5761,0.595,0.587,0.5895,0.5966,0.6012,0.6024,0.6057,0.6134,0.6148,0.6086,0.621,0.623,0.6313,0.6342,0.6305,0.6312,0.6536,0.6539,0.6541,0.6527,0,0,0,0,0,0,0.5732,0.5759,0.5787,0.587,0.5899,0.6019,0.6014,0.6028,0.607,0.6072,0.6158,0.6171,0.6211,0.6302,0.6321,0.6352,0.6318,0.6534,0.6537,0.654,0.6525,0.6529,0.6532,0,0,0,0,0,0.5723,0.5778,0.5788,0.581,0.5936,0.6021,0.6037,0.6081,0.6072,0.6102,0.6151,0.6168,0.6335,0.631,0.6332,0.6366,0.6532,0.6536,0.654,0.6524,0.6528,0.6532,0,0,0,0,0,0,0.5699,0.579,0.5802,0.5886,0.5945,0.6027,0.6066,0.6084,0.6148,0.6147,0.62,0.6219,0.6299,0.6341,0.6311,0.6444,0.6434,0.6443,0.6414,0.6419,0.6422,0.6411,0.6325,0,0,0,0,0,0.5702,0.5762,0.5839,0.5906,0.5934,0.5995,0.6034,0.6062,0.6126,0.6152,0.6207,0.627,0.6337,0.638,0.6446,0.6531,0.6551,0.6565,0.6568,0.6571,0.6578,0.6626,0.6633,0.6555,0.6555,0.6555,0,0,0.5712,0.5769,0.5804,0.5902,0.5951,0.6013,0.6016,0.6082,0.6128,0.6162,0.6244,0.6287,0.6361,0.6445,0.6485,0.6483,0.6604,0.6576,0.6577,0.6583,0.6631,0.6638,0.6645,0.6558,0.6557,0.6557,0,0,0.5761,0.581,0.587,0.5919,0.5993,0.6033,0.6047,0.6126,0.6156,0.6238,0.6265,0.6322,0.6436,0.6488,0.6529,0.6596,0.6614,0.6616,0.6634,0.668,0.6686,0.6692,0.6717,0.6725,0.6623,0.6623,0.6623,0,0.5764,0.5857,0.59,0.5964,0.6006,0.6038,0.61,0.6146,0.6238,0.6268,0.6262,0.6406,0.6458,0.6555,0.6571,0.6603,0.6622,0.6607,0.6682,0.6688,0.6694,0.6718,0.6727,0.6623,0.6623,0.6623,0.6623,0,0.5857,0.5921,0.5961,0.6047,0.6095,0.6158,0.6211,0.6254,0.6278,0.6319,0.6403,0.6466,0.6545,0.657,0.6595,0.6671,0.6666,0.6671,0.6662,0.67,0.6724,0.6733,0.6622,0.6622,0.6622,0.6622,0,0,0.5895,0.6003,0.6018,0.6057,0.614,0.6192,0.6256,0.6332,0.6368,0.643,0.6486,0.6581,0.6586,0.6632,0.6663,0.6704,0.6753,0.6704,0.6706,0.6711,0.6842,0.6838,0.6848,0.6765,0.6767,0.6769,0.6835,0,0.5955,0.607,0.611,0.6205,0.6265,0.6296,0.6352,0.641,0.645,0.6508,0.6552,0.6619,0.6619,0.6648,0.6689,0.6738,0.678,0.6734,0.682,0.6822,0.68,0.686,0.6857,0.6916,0.6845,0.6846,0.6848,0,0.604,0.6101,0.6202,0.6277,0.6304,0.6354,0.6426,0.6481,0.6548,0.6574,0.6625,0.6653,0.6723,0.6709,0.6806,0.6774,0.6811,0.6841,0.6844,0.6854,0.6837,0.6872,0.6936,0.6945,0.6862,0.6861,0.686,0,0.6058,0.6166,0.624,0.6273,0.6363,0.6397,0.6437,0.6502,0.6545,0.6608,0.6637,0.6708,0.6748,0.6803,0.685,0.6835,0.6944,0.6933,0.6968,0.6967,0.699,0.6988,0.7062,0.7013,0.7013,0.7013,0.7013,0,0.612,0.6181,0.625,0.6295,0.6364,0.6411,0.6478,0.652,0.6577,0.6633,0.6664,0.6715,0.6774,0.6833,0.687,0.6946,0.6963,0.6987,0.6996,0.6985,0.6982,0.701,0.7008,0.7015,0.7015,0.7014,0.7014,0,0.6152,0.6201,0.6284,0.6361,0.6382,0.643,0.6497,0.6544,0.6584,0.6654,0.6673,0.6737,0.6808,0.686,0.6953,0.6978,0.7059,0.7068,0.7036,0.7041,0.7072,0.7069,0.7167,0.7183,0.7123,0.7124,0.7124,0,0.6189,0.6236,0.6318,0.6357,0.6395,0.6457,0.6501,0.6548,0.6592,0.6671,0.6708,0.6782,0.6843,0.6956,0.7012,0.7083,0.7094,0.7124,0.7105,0.7092,0.7095,0.7092,0.7097,0.7127,0.7127,0.7127,0.7128,0,0.6249,0.627,0.6331,0.64,0.645,0.6507,0.6564,0.6594,0.6653,0.6701,0.6773,0.682,0.6914,0.6987,0.7063,0.7106,0.7127,0.7133,0.7145,0.7133,0.7113,0.7124,0.7043,0.713,0.713,0.713,0.713,0.713,0.6285,0.6328,0.6392,0.6459,0.6507,0.656,0.6607,0.6652,0.6713,0.6792,0.6817,0.6892,0.6958,0.7063,0.7106,0.7166,0.7165,0.7182,0.7187,0.719,0.719,0.7102,0.718,0.718,0.718,0.718,0.718,0,0.6347,0.6389,0.645,0.6528,0.6581,0.6594,0.6659,0.6702,0.6767,0.6826,0.6885,0.6968,0.7039,0.71,0.7173,0.721,0.7221,0.7228,0.7226,0.7235,0.7186,0.7169,0.7217,0.7217,0.7217,0.7217,0.7217,0.7217,0.6385,0.6459,0.6488,0.6586,0.6629,0.6702,0.6737,0.6786,0.6834,0.6925,0.6983,0.7021,0.7082,0.7159,0.7225,0.7241,0.7267,0.7271,0.7289,0.7243,0.7239,0.7234,0.7218,0.7276,0.7276,0.7333,0.7334,0.7334]},{"header":{"parameterUnit":"m.s-1","parameterCategory":1,"la1":30.2991,"la2":30.254,"lo1":-89.0895,"lo2":-89.0444,"dy":0.0017,"dx":0.0017,"nx":28,"ny":28,"refTime":"2024-08-11T21:00:00:Z","depth":0,"parameterNumber":3,"parameterNumberName":"V-component_of_WINDS"},"data":[0,0,0,0,0,0,0,0,0,0,0,0,0,0,0,0,0,0,0,0,0,0,0,0,0,0,0,0,0,0,0,0,0,0,0,0,0,0,0,0,0,0,0,0,0,0,0,0,0,0,0,0,0,0,0,0,0,0,3.1272,3.1272,0,3.1259,3.1259,3.1259,3.1238,3.1237,3.1237,3.1237,3.1219,3.1219,3.1219,0,0,0,0,0,0,0,0,0,0,0,0,0,3.1271,3.1271,3.1272,3.1272,3.1272,3.1259,3.1259,3.1258,3.1238,3.1237,3.1237,3.1236,3.1219,3.1219,3.1219,0,0,0,0,0,0,0,0,0,0,0,0,0,3.1266,3.1272,3.1272,3.126,3.1259,3.1259,3.1259,3.1258,3.1238,3.1237,3.1237,3.1236,3.1219,3.1219,3.1219,3.1229,0,0,3.1218,3.1218,0,0,0,0,0,0,0,0,3.1266,3.1266,3.1262,3.1261,3.1259,3.1249,3.1252,3.1248,3.1238,3.1246,3.1237,3.1236,3.1229,3.1228,3.1227,3.1228,3.1227,3.1218,3.1218,3.1218,3.1218,0,0,0,0,0,0,0,3.1267,3.1267,3.1267,3.1262,3.126,3.1252,3.1251,3.1251,3.1241,3.1245,3.1243,3.1242,3.1229,3.1227,3.1226,3.1227,3.1218,3.1218,3.1218,3.1218,3.123,3.123,0,0,0,0,0,0,3.127,3.1267,3.1267,3.1266,3.1262,3.1253,3.1251,3.1253,3.1241,3.1238,3.1243,3.1241,3.1228,3.1227,3.1226,3.1233,3.1218,3.1218,3.1218,3.1229,3.123,3.123,0,0,0,0,0,0,3.127,3.127,3.1268,3.1266,3.1265,3.1254,3.1255,3.1253,3.1252,3.1239,3.1236,3.1244,3.1227,3.1226,3.1227,3.1232,3.1218,3.1218,3.1229,3.1229,3.123,3.125,0,0,0,0,0,0,3.127,3.127,3.1276,3.1267,3.1265,3.1272,3.1256,3.1253,3.1252,3.125,3.1239,3.1237,3.1227,3.1228,3.1227,3.1232,3.1218,3.1228,3.1229,3.123,3.1249,3.1251,3.1254,0,0,0,0,0,3.127,3.1283,3.1277,3.1277,3.1273,3.1272,3.1271,3.1261,3.1253,3.1257,3.1247,3.1237,3.1232,3.1228,3.1227,3.1232,3.1228,3.1229,3.123,3.1248,3.1251,3.1253,0,0,0,0,0,0,3.1293,3.1281,3.1275,3.1285,3.128,3.1269,3.1274,3.1265,3.1261,3.1259,3.1244,3.1242,3.1244,3.1238,3.1234,3.1238,3.1228,3.1229,3.1242,3.1245,3.1247,3.1248,3.1218,0,0,0,0,0,3.1299,3.1302,3.1291,3.13,3.1298,3.1286,3.1286,3.1277,3.1271,3.1268,3.126,3.1252,3.1248,3.1246,3.1242,3.1248,3.1243,3.125,3.1252,3.1254,3.1255,3.1253,3.1255,3.1233,3.1233,3.1233,0,0,3.1312,3.1306,3.1309,3.1305,3.13,3.13,3.1285,3.1287,3.1285,3.1268,3.1269,3.1261,3.1252,3.1254,3.1254,3.1249,3.1259,3.1255,3.1257,3.1257,3.1254,3.1256,3.1258,3.1234,3.1234,3.1233,0,0,3.1336,3.1333,3.1339,3.1333,3.1325,3.1317,3.1318,3.1308,3.1302,3.1302,3.1288,3.1285,3.128,3.1272,3.1268,3.1282,3.1272,3.1281,3.1293,3.1291,3.1293,3.1294,3.1297,3.1298,3.1282,3.1282,3.1282,0,3.1352,3.1354,3.1342,3.1344,3.1341,3.1325,3.1328,3.1323,3.1314,3.1311,3.1305,3.1295,3.1288,3.1286,3.1289,3.1287,3.1285,3.1283,3.1294,3.1295,3.1296,3.1298,3.13,3.1283,3.1283,3.1283,3.1283,0,3.1373,3.1373,3.1378,3.137,3.1367,3.137,3.1356,3.1354,3.1345,3.1336,3.1333,3.1323,3.1315,3.1314,3.1305,3.1309,3.1306,3.1297,3.1286,3.13,3.1301,3.1302,3.1285,3.1284,3.1284,3.1284,0,0,3.1412,3.1395,3.1396,3.139,3.1379,3.1378,3.1377,3.137,3.1367,3.136,3.1357,3.1351,3.1341,3.1336,3.1326,3.1324,3.1332,3.1315,3.1315,3.1317,3.1332,3.1338,3.1339,3.1325,3.1325,3.1325,3.1332,0,3.1431,3.1432,3.1419,3.1422,3.142,3.1403,3.1401,3.1392,3.1383,3.1378,3.1366,3.1361,3.1351,3.1347,3.1345,3.1332,3.1335,3.1331,3.132,3.1319,3.1322,3.1341,3.1348,3.1355,3.1333,3.1333,3.1333,0,3.1454,3.1448,3.1451,3.1435,3.1433,3.1433,3.1423,3.1419,3.1407,3.1399,3.1391,3.1379,3.1374,3.1364,3.1355,3.1353,3.1347,3.1339,3.1339,3.1337,3.1327,3.1337,3.1357,3.1358,3.1335,3.1334,3.1334,0,3.1479,3.1471,3.1471,3.1466,3.1449,3.1448,3.144,3.1428,3.1422,3.1413,3.1408,3.1398,3.1392,3.1382,3.1366,3.1361,3.1357,3.1347,3.1349,3.1349,3.1349,3.1349,3.1367,3.1347,3.1347,3.1347,3.1347,0,3.1501,3.1502,3.1481,3.1481,3.148,3.1464,3.1463,3.1454,3.1442,3.1437,3.1421,3.1416,3.1396,3.1387,3.1374,3.1367,3.1365,3.1356,3.1353,3.1357,3.1358,3.1353,3.1351,3.1347,3.1347,3.1347,3.1347,0,3.1528,3.1515,3.1512,3.1495,3.149,3.1491,3.1475,3.1472,3.146,3.1453,3.1451,3.1432,3.1421,3.1404,3.1388,3.1379,3.1373,3.1368,3.1378,3.1375,3.1377,3.1377,3.1391,3.1391,3.1373,3.1373,3.1373,0,3.1543,3.1543,3.1525,3.1521,3.1514,3.1508,3.1502,3.1485,3.1479,3.1462,3.146,3.1448,3.1438,3.1421,3.1404,3.1391,3.1384,3.139,3.1382,3.1385,3.1382,3.1381,3.138,3.1392,3.1392,3.1392,3.1393,0,3.1568,3.156,3.1553,3.1542,3.1536,3.1526,3.1516,3.1513,3.1493,3.1486,3.1475,3.1467,3.145,3.1437,3.1421,3.141,3.1397,3.1395,3.1394,3.1399,3.1404,3.1399,3.1381,3.1395,3.1395,3.1394,3.1394,3.1394,3.1587,3.1586,3.1572,3.1563,3.1553,3.1543,3.1539,3.1526,3.1517,3.1502,3.1492,3.148,3.1464,3.1441,3.143,3.1419,3.1414,3.1414,3.1413,3.1413,3.1414,3.1406,3.1416,3.1416,3.1416,3.1416,3.1416,0,3.161,3.1599,3.1592,3.1577,3.1569,3.1559,3.1545,3.1539,3.153,3.1516,3.1506,3.1491,3.1477,3.1459,3.1443,3.1438,3.1431,3.1434,3.1434,3.1431,3.1421,3.1422,3.1439,3.1439,3.1439,3.1439,3.1439,3.1439,3.162,3.1616,3.1606,3.1594,3.1583,3.1573,3.1566,3.1555,3.1544,3.1529,3.1518,3.1506,3.1489,3.1471,3.1457,3.1452,3.1446,3.1451,3.1443,3.1434,3.1432,3.143,3.1431,3.145,3.145,3.1454,3.1454,3.1454]}]]